Other Public Products
Issued by NWS Grand Forks, ND

Home | Current Version | Previous Version | Text Only | Print | Product List | Glossary On
Versions: 1 2 3 4 5 6 7 8 9 10 11 12 13 14 15 16 17 18 19 20 21 22 23 24 25 26 27 28 29 30 31 32 33 34 35 36 37 38 39 40 41 42 43 44 45 46 47 48 49 50
000
FPUS83 KFGF 011231
OPUFGF
PRAIRIE TO PINES WEATHER ROUNDUP
NATIONAL WEATHER SERVICE EASTERN NORTH DAKOTA/GRAND FORKS ND
700 AM CDT SUN MAY 01 2016

 **SATELLITE DATA USED TO AUGMENT SKY COVER AT AUTOMATED STATIONS**
 *****  WEATHER ACROSS EASTERN NORTH DAKOTA  *****

CITY           SKY/WX    TMP DP  RH WIND       PRES   REMARKS
GRAND FORKS    PTCLDY    32  26  78 NW5       30.31R
6HR MIN TEMP:  28; 6HR MAX TEMP:  47;

GRAND FORKS AF PTCLDY    33  26  73 N5        30.31R
GRAND CITY NWS NOT AVBL
BUXTON           N/A     36  32  87 NW3         N/A
DEVILS LAKE    CLEAR     31  27  85 N3        30.32R
6HR MIN TEMP:  30; 6HR MAX TEMP:  37;

FARGO          CLEAR     33  26  75 N3        30.29R
6HR MIN TEMP:  31; 6HR MAX TEMP:  46;

WAHPETON ARPT  SUNNY     41  28  60 NE7       30.28R
$$

 *****  WEATHER ACROSS CENTRAL AND WESTERN NORTH DAKOTA  *****

CITY           SKY/WX    TMP DP  RH WIND       PRES   REMARKS
JAMESTOWN      CLEAR     32  27  81 N7        30.29R
6HR MIN TEMP:  28; 6HR MAX TEMP:  38;

BISMARCK       CLEAR     34  30  85 W5        30.32R
6HR MIN TEMP:  30; 6HR MAX TEMP:  40;

MINOT          CLEAR     35  26  69 SW3       30.33R
6HR MIN TEMP:  35; 6HR MAX TEMP:  44;

MINOT AFB      CLEAR     29  26  88 NW7       30.33R WCI  22
6HR MIN TEMP:  28; 6HR MAX TEMP:  42;

GARRISON         N/A     33  28  81 N8        30.32R
6HR MIN TEMP:  31; 6HR MAX TEMP:  42;

WILLISTON      CLEAR     33  27  78 CALM      30.34S
6HR MIN TEMP:  30; 6HR MAX TEMP:  47;

DICKINSON      CLEAR     30  24  78 W5        30.30S
6HR MIN TEMP:  28; 6HR MAX TEMP:  36;

HETTINGER      CLEAR     27  22  81 W3        30.33R
6HR MIN TEMP:  24; 6HR MAX TEMP:  31;

$$

 *****  OTHER OBSERVATIONS NORTHEAST NORTH DAKOTA  *****

CITY           SKY/WX    TMP DP  RH WIND       PRES   REMARKS
WALHALLA       FAIR      34  34 100 CALM      30.33S
LANGDON        FAIR      36  28  75 N7        30.32S
CAVALIER       FAIR      39  30  70 NW7       30.32S
GRAFTON        FAIR      39  30  70 N6        30.34R
CANDO          FAIR      34  28  80 N10       30.35R
FORT TOTTEN      N/A     34  32  93 CALM      29.95S
ROLLA          FAIR      37  28  70 N8        30.34R
RUGBY          FAIR      37  32  81 CALM      30.33R
 ***** THE ABOVE OBSERVATIONS ARE NON NWS ARE NOT QUALITY
        CONTROLLED AND MAY MIS-REPORT RAIN FOR SNOW...
$$

 *****  OTHER OBSERVATIONS SOUTHEAST NORTH DAKOTA *****

CITY           SKY/WX    TMP DP  RH WIND       PRES   REMARKS
COOPERSTOWN    NOT AVBL
VALLEY CITY    FAIR      37  30  75 N5        30.31R
OAKES            N/A    N/A N/A N/A MISG        N/A
GWINNER        FAIR      36  32  87 N6        30.28R
SHEYENNE NWR     N/A     33  28  80 N3        29.95S
BUFFALO          N/A     36  26  68 N2          N/A
WYNDMERE         N/A     37  30  75 NE3         N/A
 ***** THE ABOVE OBSERVATIONS ARE NON NWS ARE NOT QUALITY
       CONTROLLED AND MAY MIS-REPORT RAIN FOR SNOW...
$$

  *****  WEATHER ACROSS NORTHERN MINNESOTA  *****

CITY           SKY/WX    TMP DP  RH WIND       PRES   REMARKS
FLAG ISLAND    CLEAR     41  32  70 CALM      30.31R
WARROAD        CLEAR     37  34  87 N3        30.32R
ROSEAU         CLEAR     36  30  80 CALM      30.31S
HALLOCK        CLEAR     37  28  70 CALM      30.32R
THF RVR FALLS  CLEAR     39  28  65 CALM      30.31S
6HR MIN TEMP:  34; 6HR MAX TEMP:  45;

HALSTAD        NOT AVBL
FOSSTON        PTCLDY    36  28  75 CALM      30.30R
BAUDETTE       CLEAR     34  28  79 E3        30.30R
6HR MIN TEMP:  30; 6HR MAX TEMP:  43;

WASKISH        PTCLDY    36  34  93 CALM      30.29S
CROOKSTON      CLEAR     37  30  75 CALM      30.31S
$$
  *****  WEATHER ACROSS CENTRAL AND WEST MINNESOTA  *****

CITY           SKY/WX    TMP DP  RH WIND       PRES   REMARKS
BEMIDJI        CLEAR     32  29  90 CALM      30.29R
PARK RAPIDS    CLEAR     37  29  72 N5        30.26R
6HR MIN TEMP:  35; 6HR MAX TEMP:  43;

WADENA         CLEAR     36  28  75 N6          N/A
DETROIT LAKES  CLEAR     39  32  75 NE5       30.28S
MOORHEAD       CLEAR     36  28  75 N3        30.30R
FERGUS FALLS   CLEAR     39  30  70 N3        30.26R
ELBOW LAKE     FAIR      39  31  72 E9        30.26R
MORRIS MN      CLEAR     37  30  75 NE8       30.22R
STAPLES        CLEAR     36  27  69 N3        30.25R
WHEATON        CLEAR     39  32  75 N7        30.27S
$$
  *****  WEATHER ELSEWHERE ACROSS MINNESOTA  *****

CITY           SKY/WX    TMP DP  RH WIND       PRES   REMARKS
DULUTH         SUNNY     35  27  72 NE6       30.23R
6HR MIN TEMP:  32; 6HR MAX TEMP:  36;

INTRNTL FALLS  CLEAR     33  29  85 CALM      30.30R
6HR MIN TEMP:  28; 6HR MAX TEMP:  40;

ELY            SUNNY     34  28  80 CALM      30.27R
CLOQUET        CLEAR     34  28  80 N8        30.24R
BRAINERD       CLEAR     35  28  75 NE7       30.25R
6HR MIN TEMP:  31; 6HR MAX TEMP:  37;

HIBBING        CLEAR     29  27  92 N5        30.26R WCI  24
6HR MIN TEMP:  23; 6HR MAX TEMP:  29;

ALEXANDRIA     CLEAR     37  28  70 NE10      30.23R
6HR MIN TEMP:  36; 6HR MAX TEMP:  42;

SAINT CLOUD    CLEAR     37  30  75 N8        30.19R
6HR MIN TEMP:  34; 6HR MAX TEMP:  41;

MINNEAPOLIS    CLOUDY    42  33  70 NE9       30.15R
6HR MIN TEMP:  41; 6HR MAX TEMP:  47;

$$

  *****  WEATHER ACROSS SOUTH DAKOTA  *****

CITY           SKY/WX    TMP DP  RH WIND       PRES   REMARKS
SIOUX FALLS    LGT RAIN  41  37  86 N12       30.13R
6HR MIN TEMP:  41; 6HR MAX TEMP:  44; 6HR PCP:  0.05;

BROOKINGS      CLEAR     34  29  82 NE9       30.16R
WATERTOWN      CLEAR     35  27  72 NE7       30.19R
6HR MIN TEMP:  34; 6HR MAX TEMP:  44;

HURON          CLEAR     34  30  85 N8        30.20R
6HR MIN TEMP:  33; 6HR MAX TEMP:  44;

SISSETON         N/A     36  29  75 NE9       30.24R
ABERDEEN       CLEAR     33  29  85 N6        30.26R
6HR MIN TEMP:  31; 6HR MAX TEMP:  41;

MITCHELL       MOCLDY    38  34  85 N10       30.18R
PIERRE         CLEAR     31  28  89 W7        30.24R WCI  24
6HR MIN TEMP:  31; 6HR MAX TEMP:  41;

MOBRIDGE       CLEAR     35  30  82 CALM      30.26R
RAPID CITY     CLOUDY    38  30  73 N13       30.29R
6HR MIN TEMP:  32; 6HR MAX TEMP:  41;

$$

  *****  SOME WEATHER IN NEARBY STATES *****

CITY           SKY/WX    TMP DP  RH WIND       PRES   REMARKS
GLASGOW MT     PTCLDY    34  28  79 SE6       30.33S
6HR MIN TEMP:  34; 6HR MAX TEMP:  43;

GREAT FALLS MT CLEAR     35  32  88 S5        30.32S
6HR MIN TEMP:  32; 6HR MAX TEMP:  41;

CHEYENNE WY    CLOUDY    30  28  92 N10       30.25R WCI  21
6HR MIN TEMP:  30; 6HR MAX TEMP:  31; 6HR PCP: TRACE;

SCOTTSBLUFF NE CLOUDY    37  33  85 NW7       30.26R
6HR MIN TEMP:  37; 6HR MAX TEMP:  38; 6HR PCP:  0.01;

OMAHA NE       LGT RAIN  45  43  93 NE8       29.98R
6HR MIN TEMP:  45; 6HR MAX TEMP:  48; 6HR PCP:  0.01;

DES MOINES IA  CLOUDY    46  42  86 NE10      29.97R
6HR MIN TEMP:  45; 6HR MAX TEMP:  46; 6HR PCP:  0.01;

DAVENPORT IA   CLOUDY    46  45  96 NE12      29.98R FOG
6HR MIN TEMP:  45; 6HR MAX TEMP:  46;

CHICAGO IL     FOG       42  42 100 N13       29.96R VSB 1/4
6HR MIN TEMP:  42; 6HR MAX TEMP:  45; 6HR PCP:  0.02;

EAU CLAIRE WI  CLOUDY    42  34  73 NE9       30.12R
6HR MIN TEMP:  42; 6HR MAX TEMP:  48;

LA CROSSE WI   CLOUDY    47  35  63 N6        30.08R
6HR MIN TEMP:  44; 6HR MAX TEMP:  48; 6HR PCP: TRACE;

$$

  *****  SOME NATIONAL WEATHER *****

CITY           SKY/WX    TMP DP  RH WIND       PRES   REMARKS
LA GUARDIA NY  LGT RAIN  50  38  63 S9        30.22R
6HR MIN TEMP:  50; 6HR MAX TEMP:  51; 6HR PCP: TRACE;              C1F1C2F2C3F3C4F4C5F5C6F6C7F7C8F8C9F9CaFaCbFbCcFcCdFdCe!


USA.gov is the U.S. government's official web portal to all federal, state and local government web resources and services.